Flag for U.S.A. Weather past 2 weeks in Palo Alto, California, U.S.A.

Now
65 °F

Passing clouds.


Feels Like: 65 °F
Forecast: 62 / 75 °F
Wind: 5 mph from Northeast

Location: Moffett Field

Current Time: Aug 2, 2015 at 1:35:20 AM

Latest Report: Aug 2, 2015 at 12:56 AM


Visibility: 10 mi

Pressure: 29.97 "Hg

Humidity: 85%

Dew point: 60 °F

Location of Palo AltoLocation

Historic Weather in Palo Alto — Graph

°F

Palo Alto temperature yesterday

Maximum temperature yesterday: 77 °F (at 3:56 PM)
Minimum temperature yesterday: 64 °F (at 12:56 AM)
Average temperature yesterday: 69 °F

Past Weeks' High & Low Weather Summary

 TemperatureHumidityPressure
High90 °F (Jul 28, 2:56 PM)90% (Jul 25, 3:56 AM)30.14 "Hg (Jul 25, 3:56 AM)
Low56 °F (Jul 24, 4:56 AM)32% (Jul 28, 1:56 PM)29.82 "Hg (Jul 28, 5:56 PM)
Average69 °F67%29.97 "Hg
* Reported Jul 17 11:56 PM — Aug 1 11:56 PM, Palo Alto, Weather by CustomWeather, © 2015

Note: Actual official high and low records may vary slightly from our data, if they occured in-between our weather recording intervals... More about our weather records

Advertising

Palo Alto weather history for previous 24 hours

 ConditionsComfort  
Time TempWeatherWind HumidityBarometerVisibility
11:56 PM
Sat, Aug 1
66 °FClear.6 mph81%29.98 "Hg10 mi
10:56 PM66 °FClear.6 mph81%29.99 "Hg10 mi
9:56 PM68 °FClear.13 mph73%29.98 "Hg10 mi
8:56 PM70 °FSunny.10 mph66%29.97 "Hg10 mi
7:56 PM71 °FSunny.12 mph71%29.94 "Hg10 mi
6:56 PM74 °FSunny.13 mph67%29.94 "Hg10 mi
5:56 PM75 °FSunny.17 mph62%29.93 "Hg10 mi
4:56 PM76 °FSunny.15 mph60%29.94 "Hg10 mi
3:56 PM77 °FSunny.15 mph54%29.94 "Hg10 mi
2:56 PM74 °FSunny.12 mph60%29.96 "Hg10 mi
1:56 PM75 °FSunny.12 mph60%29.98 "Hg10 mi
12:56 PM75 °FSunny.12 mph60%30.00 "Hg10 mi
11:56 AM74 °FSunny.10 mph62%30.02 "Hg10 mi
10:56 AM72 °FPassing clouds.5 mph64%30.03 "Hg10 mi
9:56 AM70 °FOvercast.5 mph71%30.03 "Hg10 mi
8:56 AM67 °FOvercast.3 mph76%30.03 "Hg10 mi
7:56 AM66 °FOvercast.5 mph78%30.03 "Hg10 mi
6:56 AM65 °FOvercast.3 mph81%30.02 "Hg10 mi
5:56 AM65 °FOvercast.3 mph81%30.00 "Hg10 mi
4:56 AM64 °FOvercast.No wind84%29.99 "Hg10 mi
3:56 AM65 °FOvercast.3 mph81%29.99 "Hg10 mi
2:56 AM65 °FOvercast.3 mph81%29.99 "Hg10 mi
1:56 AM64 °FPassing clouds.5 mph84%29.99 "Hg10 mi
Weather by CustomWeather, © 2015

See weather overviewHow to use our weather pages